Hoquiam, WA

8:53 AM PDT on March 26, 2017 (GMT -0700)
Bowerman

Weather History for KHQM - September, 2013

Change the Weather History Date:

Tuesday, September 24, 2013

  Actual Average Record
Temperature  
Mean Temperature 53 °F 57 °F  
Max Temperature 59 °F 65 °F 85 °F (1974)
Min Temperature 47 °F 49 °F 38 °F (2005)
Degree Days  
Heating Degree Days 12 8  
Month to date heating degree days 85 139  
Cooling Degree Days 0 0  
Month to date cooling degree days 7 0  
Year to date cooling degree days 20 16  
Growing Degree Days 4 (Base 50)    
Moisture  
Dew Point 49 °F    
Average Humidity 80    
Maximum Humidity 93    
Minimum Humidity 67    
Precipitation  
Precipitation 0.01 in 0.08 in 0.69 in (1960)
Month to date precipitation 3.42 1.69  
Year to date precipitation 37.76 39.30  
Sea Level Pressure  
Sea Level Pressure 29.91 in    
Wind  
Wind Speed 4 mph (East)    
Max Wind Speed 12 mph    
Max Gust Speed 16 mph    
Visibility 10 miles    
Events Rain    
T = Trace of Precipitation, MM = Missing Value Source: NWS Daily Summary

Daily Weather History Graph

Daily Weather History Graph

Search for Another Location

Airport or City:

Trip Planner

Search our weather history database for the weather conditions in past years. The results will help you decide how hot, cold, wet, or windy it might be!

Date:

Astronomy

Sep. 24, 2013 Rise Set
Actual Time 7:05 AM PDT 7:08 PM PDT
Civil Twilight 6:35 AM PDT 7:38 PM PDT
Nautical Twilight 5:59 AM PDT 8:14 PM PDT
Astronomical Twilight 5:23 AM PDT 8:50 PM PDT
Moon 10:10 PM PDT (9/24) 12:45 PM PDT (9/24)
Length of Visible Light 13h 03m
Length of Day
12h 02m
Waning Gibbous, 72% of the Moon is Illuminated
Sep 24
Waning Gibbous
Sep 26
Last Quarter
Oct 4
New
Oct 11
First Quarter
Oct 18
Full

Hourly Weather History & Observations

Time (PDT) Temp. Dew Point Humidity Pressure Visibility Wind Dir Wind Speed Gust Speed Precip Events Conditions
12:53 AM 50.0 °F 46.9 °F 89% 29.98 in 10.0 mi East 3.5 mph - N/A   Clear
1:53 AM 48.0 °F 46.0 °F 93% 29.98 in 10.0 mi ENE 3.5 mph - N/A   Mostly Cloudy
2:53 AM 51.1 °F 48.9 °F 92% 29.97 in 10.0 mi NE 4.6 mph - N/A   Overcast
3:53 AM 50.0 °F 48.0 °F 93% 29.96 in 10.0 mi NE 3.5 mph - N/A   Mostly Cloudy
4:53 AM 50.0 °F 48.0 °F 93% 29.95 in 10.0 mi ENE 4.6 mph - N/A   Overcast
5:53 AM 50.0 °F 48.0 °F 93% 29.94 in 8.0 mi NE 5.8 mph - N/A   Overcast
6:53 AM 48.9 °F 46.9 °F 93% 29.93 in 10.0 mi NE 3.5 mph - N/A   Clear
7:53 AM 48.9 °F 46.9 °F 93% 29.93 in 10.0 mi NE 5.8 mph - N/A   Clear
8:53 AM 52.0 °F 48.0 °F 86% 29.94 in 10.0 mi NE 5.8 mph - N/A   Mostly Cloudy
9:53 AM 55.0 °F 48.9 °F 80% 29.93 in 10.0 mi ENE 4.6 mph - N/A   Partly Cloudy
10:53 AM 55.9 °F 51.1 °F 84% 29.92 in 10.0 mi East 5.8 mph - N/A   Mostly Cloudy
11:53 AM 57.0 °F 51.1 °F 81% 29.91 in 10.0 mi South 9.2 mph - 0.00 in Rain Light Rain
12:53 PM 55.9 °F 48.0 °F 75% 29.91 in 10.0 mi ESE 4.6 mph - 0.00 in   Mostly Cloudy
1:53 PM 55.9 °F 48.9 °F 77% 29.89 in 10.0 mi SE 4.6 mph - N/A   Mostly Cloudy
2:53 PM 57.0 °F 51.1 °F 81% 29.89 in 10.0 mi SSE 4.6 mph - 0.00 in Rain Light Rain
3:13 PM 57.2 °F 51.8 °F 82% 29.87 in 10.0 mi SSE 5.8 mph - 0.00 in   Overcast
3:40 PM 57.2 °F 51.8 °F 82% 29.87 in 10.0 mi SSE 3.5 mph - 0.00 in   Mostly Cloudy
3:53 PM 57.0 °F 51.1 °F 81% 29.88 in 10.0 mi SSE 5.8 mph - 0.00 in   Mostly Cloudy
4:05 PM 57.2 °F 51.8 °F 82% 29.87 in 10.0 mi SSE 8.1 mph - N/A   Overcast
4:31 PM 59.0 °F 48.2 °F 67% 29.86 in 10.0 mi West 6.9 mph - N/A   Scattered Clouds
4:53 PM 57.9 °F 46.0 °F 65% 29.87 in 10.0 mi WNW 5.8 mph - N/A   Scattered Clouds
5:53 PM 55.0 °F 50.0 °F 83% 29.87 in 10.0 mi SSE 8.1 mph - 0.01 in Rain Light Rain
6:53 PM 54.0 °F 50.0 °F 86% 29.87 in 10.0 mi East 6.9 mph - N/A   Mostly Cloudy
7:09 PM 53.6 °F 50.0 °F 88% 29.86 in 10.0 mi East 5.8 mph - N/A   Mostly Cloudy
7:53 PM 53.1 °F 50.0 °F 89% 29.88 in 10.0 mi ESE 4.6 mph - N/A   Partly Cloudy
8:53 PM 52.0 °F 48.9 °F 89% 29.88 in 10.0 mi Calm Calm - N/A   Mostly Cloudy
9:53 PM 52.0 °F 48.9 °F 89% 29.88 in 10.0 mi Calm Calm - N/A   Mostly Cloudy
10:53 PM 51.1 °F 48.9 °F 92% 29.88 in 10.0 mi NE 3.5 mph - N/A   Overcast
11:53 PM 50.0 °F 48.9 °F 96% 29.88 in 10.0 mi Calm Calm - N/A   Clear